Weather History for Pine Ridge, SD

Change the Weather History Date:

Friday, February 8, 2013

  Actual Average Record
Temperature  
Mean Temperature 39 °F 25 °F  
Max Temperature 54 °F 38 °F 57 °F (2000)
Min Temperature 24 °F 12 °F -16 °F (2011)
Degree Days  
Heating Degree Days 26 40  
Month to date heating degree days 230 323  
Since 1 July heating degree days 4357 4600  
Cooling Degree Days 0 0  
Month to date cooling degree days 0 0  
Year to date cooling degree days 0 0  
Moisture  
Dew Point 22 °F    
Average Humidity 55    
Maximum Humidity 81    
Minimum Humidity 28    
Precipitation  
Precipitation 0.00 in 0.02 in 0.01 in (2001)
Month to date precipitation 0.01 0.15  
Year to date precipitation 0.74 0.47  
Sea Level Pressure  
Sea Level Pressure 29.90 in    
Wind  
Wind Speed 10 mph (South)    
Max Wind Speed 29 mph    
Max Gust Speed 39 mph    
Visibility 10 miles    
Events      
T = Trace of Precipitation, MM = Missing Value Source: NWS Daily Summary

Daily Weather History Graph

Daily Weather History Graph

Search for Another Location

Airport:

Trip Planner

Search our weather history database for the weather conditions in past years. The results will help you decide how hot, cold, wet, or windy it might be!

Date:

Astronomy

Feb. 08, 2013 Rise Set
Actual Time 6:56 AM MST 5:12 PM MST
Civil Twilight 6:27 AM MST 5:42 PM MST
Nautical Twilight 5:53 AM MST 6:15 PM MST
Astronomical Twilight 5:20 AM MST 6:48 PM MST
Moon 5:28 AM MST (2/8) 3:47 PM MST (2/8)
Length of Visible Light 11h 15m
Length of Day
10h 15m
Waning Crescent, 3% of the Moon is Illuminated
Feb 8
Waning Crescent
Feb 10
New
Feb 17
First Quarter
Feb 25
Full
Mar 4
Last Quarter

Hourly Weather History & Observations

Time (MST) Temp. Windchill Dew Point Humidity Pressure Visibility Wind Dir Wind Speed Gust Speed Precip Events Conditions
12:52 AM 37.0 °F 27.4 °F 19.9 °F 50% 30.02 in 10.0 mi South 17.3 mph 24.2 mph N/A   Clear
1:52 AM 37.9 °F 26.6 °F 18.0 °F 45% 29.99 in 10.0 mi South 25.3 mph 38.0 mph N/A   Clear
2:52 AM 37.0 °F 25.4 °F 18.0 °F 46% 29.97 in 10.0 mi South 25.3 mph 33.4 mph N/A   Clear
3:52 AM 37.0 °F 26.4 °F 18.0 °F 46% 29.97 in 10.0 mi South 20.7 mph 32.2 mph N/A   Clear
4:52 AM 35.1 °F 27.9 °F 19.0 °F 52% 29.97 in 10.0 mi SSW 9.2 mph 20.7 mph N/A   Clear
5:52 AM 34.0 °F 24.2 °F 19.0 °F 54% 30.00 in 10.0 mi SSW 15.0 mph 23.0 mph N/A   Clear
6:52 AM 34.0 °F 23.0 °F 19.0 °F 54% 29.99 in 10.0 mi South 18.4 mph 23.0 mph N/A   Clear
7:52 AM 36.0 °F 25.3 °F 19.0 °F 50% 29.98 in 10.0 mi South 19.6 mph 27.6 mph N/A   Clear
8:52 AM 37.9 °F 29.6 °F 19.9 °F 48% 29.98 in 10.0 mi SSW 13.8 mph 23.0 mph N/A   Clear
9:52 AM 43.0 °F 36.4 °F 21.9 °F 43% 29.94 in 10.0 mi SSW 12.7 mph - N/A   Clear
10:52 AM 46.0 °F 41.9 °F 24.1 °F 42% 29.91 in 10.0 mi SSW 8.1 mph - N/A   Clear
11:52 AM 48.9 °F - 24.1 °F 38% 29.86 in 10.0 mi South 6.9 mph - N/A   Clear
12:52 PM 50.0 °F - 24.1 °F 36% 29.84 in 10.0 mi Variable 3.5 mph - N/A   Clear
1:52 PM 54.0 °F - 24.1 °F 31% 29.81 in 10.0 mi South 4.6 mph - N/A   Clear
2:52 PM 52.0 °F - 21.9 °F 31% 29.81 in 10.0 mi Calm Calm - N/A   Clear
3:52 PM 53.1 °F - 21.9 °F 30% 29.79 in 10.0 mi Calm Calm - N/A   Clear
4:52 PM 43.0 °F 38.2 °F 28.0 °F 56% 29.82 in 10.0 mi South 8.1 mph - N/A   Clear
5:52 PM 41.0 °F 34.7 °F 25.0 °F 53% 29.82 in 10.0 mi South 10.4 mph - N/A   Clear
6:52 PM 36.0 °F 30.3 °F 25.0 °F 64% 29.84 in 10.0 mi North 6.9 mph - N/A   Clear
7:52 PM 34.0 °F 31.0 °F 24.1 °F 67% 29.84 in 10.0 mi SSE 3.5 mph - N/A   Clear
8:52 PM 33.1 °F 30.0 °F 23.0 °F 66% 29.84 in 10.0 mi ENE 3.5 mph - N/A   Clear
9:52 PM 28.0 °F 20.8 °F 23.0 °F 81% 29.85 in 10.0 mi NNE 6.9 mph - N/A   Clear
10:52 PM 26.1 °F - 21.9 °F 84% 29.85 in 10.0 mi Calm Calm - N/A   Clear
11:52 PM 25.0 °F - 21.9 °F 88% 29.84 in 10.0 mi Calm Calm - N/A   Clear